Muskogee, OK

1:38 PM CDT on March 28, 2017 (GMT -0500)
Davis

Weather History for KMKO - April, 2013

Change the Weather History Date:

Thursday, April 25, 2013

  Actual Average Record
Temperature  
Mean Temperature 52 °F -  
Max Temperature 70 °F 71 °F 86 °F (2015)
Min Temperature 34 °F 50 °F 34 °F (2013)
Degree Days  
Heating Degree Days 13    
Growing Degree Days 2 (Base 50)    
Moisture  
Dew Point 34 °F    
Average Humidity 55    
Maximum Humidity 96    
Minimum Humidity 22    
Precipitation  
Precipitation 0.00 in - - ()
Sea Level Pressure  
Sea Level Pressure 30.31 in    
Wind  
Wind Speed 3 mph (SE)    
Max Wind Speed 13 mph    
Max Gust Speed 17 mph    
Visibility 10 miles    
Events      
Averages and records for this station are not official NWS values.
T = Trace of Precipitation, MM = Missing Value Source: NWS Daily Summary

Daily Weather History Graph

Daily Weather History Graph

Search for Another Location

Airport or City:

Trip Planner

Search our weather history database for the weather conditions in past years. The results will help you decide how hot, cold, wet, or windy it might be!

Date:

Astronomy

Apr. 25, 2013 Rise Set
Actual Time 6:35 AM CDT 8:03 PM CDT
Civil Twilight 6:09 AM CDT 8:30 PM CDT
Nautical Twilight 5:36 AM CDT 9:02 PM CDT
Astronomical Twilight 5:03 AM CDT 9:36 PM CDT
Moon 8:16 PM CDT (4/25) 6:19 AM CDT (4/25)
Length of Visible Light 14h 21m
Length of Day
13h 27m
Full, 100% of the Moon is Illuminated
Apr 25
Full
Apr 25
Full
May 2
Last Quarter
May 9
New
May 17
First Quarter

Hourly Weather History & Observations

Time (CDT) Temp. Windchill Dew Point Humidity Pressure Visibility Wind Dir Wind Speed Gust Speed Precip Events Conditions
12:53 AM 39.9 °F - 33.1 °F 77% 30.36 in 10.0 mi Calm Calm - N/A   Clear
1:53 AM 36.0 °F 32.1 °F 34.0 °F 93% 30.35 in 10.0 mi SSE 4.6 mph - N/A   Clear
2:53 AM 36.0 °F 33.3 °F 34.0 °F 93% 30.33 in 10.0 mi SSE 3.5 mph - N/A   Clear
3:53 AM 35.1 °F 31.0 °F 34.0 °F 96% 30.33 in 10.0 mi South 4.6 mph - N/A   Clear
4:53 AM 36.0 °F - 33.1 °F 89% 30.34 in 10.0 mi Calm Calm - N/A   Clear
5:53 AM 35.1 °F - 32.0 °F 89% 30.35 in 10.0 mi Calm Calm - N/A   Clear
6:53 AM 34.0 °F - 32.0 °F 92% 30.37 in 10.0 mi Calm Calm - N/A   Clear
7:53 AM 39.0 °F - 36.0 °F 89% 30.39 in 10.0 mi Calm Calm - N/A   Clear
8:53 AM 46.0 °F 43.9 °F 37.0 °F 71% 30.39 in 10.0 mi SE 4.6 mph - N/A   Clear
9:53 AM 52.0 °F - 36.0 °F 54% 30.40 in 10.0 mi Calm Calm - N/A   Clear
10:53 AM 57.9 °F - 32.0 °F 37% 30.39 in 10.0 mi Calm Calm - N/A   Clear
11:53 AM 61.0 °F - 32.0 °F 34% 30.37 in 10.0 mi Variable 3.5 mph - N/A   Clear
12:53 PM 64.9 °F - 27.0 °F 24% 30.34 in 10.0 mi SSE 4.6 mph - N/A   Clear
1:53 PM 66.9 °F - 30.9 °F 26% 30.31 in 10.0 mi SSE 5.8 mph - N/A   Clear
2:53 PM 69.1 °F - 30.9 °F 24% 30.30 in 10.0 mi SE 6.9 mph 16.1 mph N/A   Clear
3:53 PM 70.0 °F - 28.9 °F 22% 30.28 in 10.0 mi South 8.1 mph - N/A   Clear
4:53 PM 66.9 °F - 32.0 °F 27% 30.25 in 10.0 mi SSE 8.1 mph 17.3 mph N/A   Clear
5:53 PM 66.9 °F - 32.0 °F 27% 30.23 in 10.0 mi SE 10.4 mph - N/A   Clear
6:53 PM 64.9 °F - 36.0 °F 34% 30.22 in 10.0 mi ESE 6.9 mph - N/A   Clear
7:53 PM 63.0 °F - 37.0 °F 38% 30.21 in 10.0 mi ESE 3.5 mph - N/A   Clear
8:53 PM 61.0 °F - 39.0 °F 44% 30.21 in 10.0 mi ESE 4.6 mph - N/A   Overcast
9:53 PM 62.1 °F - 37.9 °F 41% 30.21 in 10.0 mi SE 9.2 mph - N/A   Overcast
10:53 PM 61.0 °F - 37.0 °F 41% 30.19 in 10.0 mi SE 12.7 mph - N/A   Scattered Clouds
11:53 PM 55.9 °F - 41.0 °F 57% 30.22 in 10.0 mi South 4.6 mph - N/A   Scattered Clouds